Lebanon, NH

10:44 PM EST on November 19, 2019 (GMT -0500)
Lebanon Municipal

Weather History for KLEB - October, 2019

Change the Weather History Date:

Sunday, October 20, 2019

  Actual Average Record
Temperature  
Mean Temperature 44 °F -  
Max Temperature 55 °F 55 °F 77 °F (1965)
Min Temperature 32 °F 36 °F 17 °F (1972)
Degree Days  
Heating Degree Days 22    
Moisture  
Dew Point 37 °F    
Average Humidity 84    
Maximum Humidity 93    
Minimum Humidity 55    
Precipitation  
Precipitation 0.12 in - - ()
Sea Level Pressure  
Sea Level Pressure 30.07 in    
Wind  
Wind Speed 1 mph (SSE)    
Max Wind Speed 6 mph    
Max Gust Speed -    
Visibility 4 miles    
Events Fog , Rain    
Averages and records for this station are not official NWS values.
T = Trace of Precipitation, MM = Missing Value Source: NWS Daily Summary

Daily Weather History Graph

Daily Weather History Graph

Search for Another Location

Airport or City:

Astronomy

Oct. 20, 2019 Rise Set
Actual Time 7:09 AM EDT 5:58 PM EDT
Civil Twilight 6:40 AM EDT 6:27 PM EDT
Nautical Twilight 6:06 AM EDT 7:00 PM EDT
Astronomical Twilight 5:33 AM EDT 7:33 PM EDT
Moon 10:56 PM EDT 1:42 PM EDT
Length of Visible Light 11h 47m
Length of Day
10h 48m
Waning Gibbous, 59% of the Moon is Illuminated
Oct 20
Waning Gibbous
Oct 21
Last Quarter
Oct 27
New
Nov 4
First Quarter
Nov 12
Full

Hourly Weather History & Observations

Time (EDT) Temp. Windchill Dew Point Humidity Pressure Visibility Wind Dir Wind Speed Gust Speed Precip Events Conditions
12:53 AM 32.0 °F - 28.0 °F 85% 30.08 in 10.0 mi Calm Calm - N/A   Clear
1:53 AM 33.1 °F - 28.9 °F 85% 30.07 in 10.0 mi Calm Calm - N/A   Clear
2:07 AM 33.1 °F - 28.9 °F 85% 30.06 in 10.0 mi Calm Calm - N/A   Scattered Clouds
2:53 AM 32.0 °F - 28.0 °F 85% 30.08 in 10.0 mi Calm Calm - N/A   Clear
3:05 AM 32.0 °F - 28.0 °F 85% 30.06 in 10.0 mi Calm Calm - N/A   Scattered Clouds
3:13 AM 32.0 °F - 28.0 °F 85% 30.07 in 10.0 mi Calm Calm - N/A   Mostly Cloudy
3:53 AM 32.0 °F - 28.0 °F 85% 30.09 in 10.0 mi Calm Calm - N/A   Mostly Cloudy
4:04 AM 32.0 °F 27.5 °F 28.0 °F 85% 30.08 in 0.8 mi NE 4.6 mph - N/A   Mostly Cloudy
4:15 AM 33.1 °F 30.0 °F 28.9 °F 85% 30.08 in 0.2 mi NE 3.5 mph - N/A Fog Fog
4:35 AM 32.0 °F 28.7 °F 28.0 °F 85% 30.07 in 0.5 mi ENE 3.5 mph - N/A Fog Fog
4:46 AM 32.0 °F - 28.9 °F 88% 30.07 in 2.0 mi Calm Calm - N/A   Overcast
4:53 AM 32.0 °F - 28.9 °F 88% 30.08 in 4.0 mi Calm Calm - N/A   Overcast
5:04 AM 33.1 °F - 28.9 °F 85% 30.07 in 1.8 mi Calm Calm - N/A   Overcast
5:27 AM 33.1 °F - 30.0 °F 89% 30.07 in 0.5 mi Calm Calm - N/A Fog Fog
5:53 AM 33.1 °F - 30.9 °F 92% 30.08 in 0.5 mi Calm Calm - N/A Fog Fog
6:11 AM 33.1 °F - 30.0 °F 89% 30.06 in 0.2 mi Calm Calm - N/A Fog Fog
6:53 AM 34.0 °F - 30.9 °F 89% 30.10 in 0.5 mi Calm Calm - N/A Fog Fog
7:14 AM 34.0 °F 31.0 °F 30.9 °F 89% 30.08 in 1.0 mi South 3.5 mph - N/A   Mist
7:53 AM 34.0 °F - 30.9 °F 89% 30.11 in 1.0 mi Calm Calm - N/A   Overcast
8:00 AM 34.0 °F - 30.9 °F 89% 30.09 in 0.5 mi Calm Calm - N/A   Overcast
8:21 AM 35.1 °F - 30.9 °F 85% 30.10 in 2.5 mi Calm Calm - N/A   Overcast
8:28 AM 34.0 °F - 30.9 °F 89% 30.10 in 1.5 mi Calm Calm - N/A   Overcast
8:53 AM 35.1 °F - 32.0 °F 89% 30.12 in 1.5 mi Calm Calm - N/A   Overcast
9:27 AM 35.1 °F - 32.0 °F 89% 30.10 in 3.0 mi Calm Calm - N/A   Overcast
9:53 AM 36.0 °F - 32.0 °F 86% 30.13 in 3.0 mi Calm Calm - N/A   Overcast
10:32 AM 37.0 °F - 33.1 °F 86% 30.10 in 5.0 mi Calm Calm - N/A   Scattered Clouds
10:53 AM 39.0 °F - 34.0 °F 82% 30.13 in 5.0 mi Calm Calm - N/A   Scattered Clouds
11:53 AM 45.0 °F - 34.0 °F 65% 30.10 in 10.0 mi Calm Calm - N/A   Clear
12:53 PM 50.0 °F - 36.0 °F 59% 30.08 in 10.0 mi Calm Calm - N/A   Clear
1:53 PM 53.1 °F - 37.0 °F 55% 30.06 in 10.0 mi Calm Calm - N/A   Clear
2:53 PM 54.0 °F - 37.9 °F 55% 30.06 in 10.0 mi Calm Calm - N/A   Clear
3:53 PM 55.0 °F - 39.0 °F 55% 30.05 in 10.0 mi Calm Calm - N/A   Mostly Cloudy
4:53 PM 52.0 °F - 44.1 °F 74% 30.04 in 10.0 mi Calm Calm - 0.00 in   Overcast
5:53 PM 48.9 °F - 45.0 °F 86% 30.06 in 7.0 mi SE 3.5 mph - 0.03 in Rain Light Rain
6:53 PM 48.9 °F - 44.1 °F 83% 30.06 in 8.0 mi Calm Calm - 0.04 in Rain Light Rain
7:07 PM 48.9 °F - 45.0 °F 86% 30.04 in 6.0 mi Calm Calm - 0.01 in Rain Light Rain
7:53 PM 48.0 °F - 45.0 °F 89% 30.06 in 8.0 mi Calm Calm - 0.04 in Rain Light Rain
8:28 PM 48.9 °F - 45.0 °F 86% 30.06 in 3.0 mi WNW 3.5 mph - 0.01 in   Overcast
8:51 PM 48.2 °F - 44.6 °F 87% 30.06 in 1.8 mi Calm Calm - 0.01 in   Mostly Cloudy
8:53 PM 48.0 °F - 45.0 °F 89% 30.07 in 1.5 mi Calm Calm - 0.01 in   Mostly Cloudy
9:00 PM 48.0 °F - 45.0 °F 89% 30.06 in 1.0 mi Calm Calm - N/A   Overcast
9:08 PM 46.9 °F - 44.1 °F 90% 30.06 in 0.5 mi Calm Calm - N/A Fog Fog
9:24 PM 46.9 °F - 44.1 °F 90% 30.05 in 2.0 mi South 3.5 mph - N/A   Mostly Cloudy
9:35 PM 46.9 °F - 44.1 °F 90% 30.06 in 1.5 mi South 4.6 mph - N/A   Mostly Cloudy
9:51 PM 46.4 °F 44.3 °F 44.6 °F 93% 30.05 in 3.0 mi SSE 4.6 mph - N/A   Overcast
9:53 PM 46.9 °F - 44.1 °F 90% 30.07 in 4.0 mi South 4.6 mph - N/A   Overcast
10:21 PM 48.0 °F - 44.1 °F 86% 30.05 in 2.0 mi Calm Calm - N/A   Overcast
10:31 PM 48.0 °F - 45.0 °F 89% 30.06 in 3.0 mi Calm Calm - N/A   Overcast
10:39 PM 48.0 °F - 45.0 °F 89% 30.05 in 2.0 mi Calm Calm - N/A   Overcast
10:53 PM 48.0 °F - 44.1 °F 86% 30.06 in 4.0 mi Calm Calm - N/A   Overcast
11:13 PM 48.0 °F - 44.1 °F 86% 30.05 in 1.8 mi Calm Calm - N/A   Overcast
11:29 PM 46.9 °F - 44.1 °F 90% 30.05 in 3.0 mi Calm Calm - N/A   Overcast
11:53 PM 46.9 °F - 44.1 °F 90% 30.06 in 4.0 mi South 3.5 mph - N/A   Overcast
11:59 PM 46.9 °F - 44.1 °F 90% 30.06 in 1.5 mi South 5.8 mph - N/A   Overcast